SCP
0 0 0 0 0 0 0 0 0 0 0 0 0 0 0 0 0 0 0 0 0 0 0 0 0 0 0 0 0 0 0 0 0 0 0 0 0 0 0 0 0 0 0
0 0 0 0 0 0 0 0 0 0 0 0 0 0 0 0 0 0 0 0 0 0 0 0 0 0 0 0 0 0 0 0 0 0 0 0 0 0 0 0 0 0 0
0 0 0 0 0 0 0 0 0 0 0 0 0 0 0 0 0 0 0 0 0 0 0 0 0 0 0 0 0 0 0 0 0 0 0 0 0 0 0 0 0 0 0
0 0 0 0 0 0 0 0 0 0 0 0 0 0 0 0 0 0 0 0 0 0 0 0 0 0 0 0 0 0 0 0 0 0 0 0 0 0 0 0 0 0 0
0 0 0 0 0 0 0 0 0 0 0 0 0 0 0 0 0 0 0 0 0 0 0 0 0 0 0 0 0 0 0 0 0 0 0 0 0 0 0 0 0 0 0
0 0 0 0 0 0 0 0 0 0 0 0 0 0 0 0 0 0 0 0 0 0 0 0 0 0 0 0 0 0 0 0 0 0 0 0 0 0 0 0 0 0 0
0 0 0 0 0 0 1 0 0 0 0 0 0 0 0 0 0 0 0 0 0 0 0 0 0 0 0 0 0 0 0 0 0 0 0 0 0 0 0 0 0 0 0
0 0 0 0 0 1 0 0 0 0 0 0 0 0 0 0 0 0 0 0 0 0 0 0 0 0 0 0 0 0 0 0 0 0 0 0 0 0 0 0 0 0 0
0 0 0 0 0 0 0 0 0 0 0 0 0 0 0 0 0 0 0 0 0 0 0 0 0 0 0 0 0 0 0 0 0 0 0 0 0 0 0 0 0 0 0
0 0 0 0 0 0 0 0 0 0 0 0 0 0 0 0 0 0 0 0 0 0 0 0 0 0 0 0 0 0 0 0 0 0 0 0 0 0 0 0 0 0 0
0 0 0 0 0 0 0 0 0 0 0 0 0 0 0 0 0 0 0 0 0 0 0 0 0 0 0 0 0 0 0 0 0 0 0 0 0 0 0 0 0 0 0
0 0 0 0 0 0 0 0 0 0 0 0 0 0 0 0 0 0 0 0 0 0 0 0 0 0 0 0 0 0 0 0 0 0 0 0 0 0 0 0 0 0 0
0 0 0 0 0 0 0 0 0 0 0 0 0 0 0 0 0 0 0 0 0 0 0 0 0 0 0 0 0 0 0 0 0 0 0 0 0 0 0 0 0 0 0
0 0 0 0 0 0 0 0 0 0 0 0 0 0 0 0 0 0 0 0 0 0 0 0 0 0 0 0 0 0 0 0 0 0 0 0 0 0 0 0 0 0 0
0 0 0 0 0 0 0 0 0 0 0 0 0 0 0 0 0 0 0 0 0 0 0 0 0 0 0 0 0 0 0 0 0 0 0 0 0 0 0 0 0 0 0
0 0 0 0 0 0 0 0 0 0 0 0 0 0 0 0 0 0 0 0 0 0 0 0 0 0 0 0 0 0 0 0 0 0 0 0 0 0 0 0 0 0 0
0 0 0 0 0 0 0 0 0 0 0 0 0 0 0 0 0 0 0 0 0 0 0 0 0 0 0 0 0 0 0 0 0 0 0 0 0 0 0 0 0 0 0
0 0 0 0 0 0 0 0 0 0 0 0 0 0 0 0 0 0 0 0 0 0 0 0 0 0 0 0 0 0 0 0 0 0 0 0 0 0 0 0 0 0 0
0 0 0 0 0 0 0 0 0 0 0 0 0 0 0 0 0 0 0 0 0 0 0 0 0 0 0 0 0 0 0 0 0 0 0 0 0 0 0 0 0 0 0
0 0 0 0 0 0 0 0 0 0 0 0 0 0 0 0 0 0 0 0 0 0 0 0 0 0 0 0 0 0 0 0 0 0 0 0 0 0 0 0 0 0 0
0 0 0 0 0 0 0 0 0 0 0 0 0 0 0 0 0 0 0 0 0 0 0 0 0 0 0 0 0 0 0 0 0 0 0 0 0 0 0 0 0 0 0
0 0 0 0 0 0 0 0 0 0 0 0 0 0 0 0 0 0 0 0 0 0 0 0 0 0 0 0 0 0 0 0 0 0 0 0 0 0 0 0 0 0 0
0 0 0 0 0 0 0 0 0 0 0 0 0 0 0 0 0 0 0 0 0 0 0 0 0 0 0 0 0 0 0 0 0 0 0 0 0 0 0 0 0 0 0
0 0 0 0 0 0 0 0 0 0 0 0 0 0 0 0 0 0 0 0 0 0 0 0 0 0 0 0 0 0 0 0 0 0 0 0 0 0 0 0 0 0 0
0 0 0 0 0 0 0 0 0 0 0 0 0 0 0 0 0 0 0 0 0 0 0 0 0 0 0 0 0 0 0 0 0 0 0 0 0 0 0 0 0 0 0
0 0 0 0 0 0 0 0 0 0 0 0 0 0 0 0 0 0 0 0 0 0 0 0 0 0 0 0 0 0 0 0 0 0 0 0 0 0 0 0 0 0 0
Wind_Speed
6 9 17 18 18 17 16 16 16 15 14 14 14 14 13 13 13 13 13 13 12 12 12 12 13 13 12 12 12 12 12 12 12 12 12 12 13 13 13 13 11 7 13
11 12 18 18 18 17 17 16 16 15 15 14 14 14 14 13 13 13 13 12 12 12 12 12 12 12 12 12 12 12 12 12 11 11 11 10 12 12 12 12 11 8 12
13 13 16 18 18 17 16 16 16 15 15 15 14 14 14 13 13 13 12 12 12 11 11 11 11 11 11 11 11 11 11 11 11 10 9 4 6 11 12 11 11 12 11
14 12 13 18 18 17 17 16 16 16 15 15 14 14 14 14 13 13 12 12 11 11 11 11 11 11 11 11 10 10 10 11 10 9 4 3 3 10 11 11 11 11 10
12 11 13 18 18 18 17 17 17 16 16 15 15 14 14 14 14 13 12 12 11 11 11 11 11 11 10 10 9 9 10 10 10 7 4 3 3 8 10 10 10 10 10
11 10 13 19 19 18 18 17 17 17 16 15 15 14 14 14 14 13 12 12 11 11 11 11 11 11 10 10 9 9 9 10 8 4 3 3 2 8 9 9 9 9 9
11 10 12 18 19 19 18 17 17 17 16 15 15 15 15 14 14 13 13 12 12 12 11 11 11 11 10 10 9 9 9 9 5 4 3 2 3 8 8 8 8 8 8
13 11 12 19 18 18 18 17 17 17 16 15 15 15 15 14 14 13 14 13 13 12 12 11 11 10 10 9 8 8 8 7 5 4 3 2 5 8 8 8 8 7 8
10 10 9 11 13 16 17 17 16 16 16 15 15 15 14 14 14 14 14 14 13 13 12 12 11 11 10 9 8 7 7 6 4 2 3 2 6 8 7 7 7 7 7
8 8 8 8 9 9 11 14 15 15 14 14 14 13 12 12 13 13 12 13 14 13 13 12 12 11 10 9 8 7 6 5 3 2 2 3 8 8 8 8 7 7 6
7 7 8 8 8 8 8 11 12 13 13 13 11 12 11 7 7 8 10 12 14 14 13 13 12 11 9 7 7 6 4 2 3 2 2 6 9 9 8 8 7 7 7
9 9 8 9 9 8 8 7 6 7 8 8 6 7 6 5 5 7 10 13 14 13 13 13 12 10 7 3 4 4 2 3 3 3 4 9 10 10 9 9 8 8 7
10 10 10 10 10 9 7 6 4 4 5 6 7 7 6 5 4 5 4 6 8 9 6 7 6 4 4 3 3 2 3 3 3 3 5 11 11 11 10 10 9 9 8
8 10 10 10 10 10 8 7 6 5 5 5 7 9 7 5 5 5 4 5 5 4 5 4 3 4 4 5 5 4 4 3 3 3 5 11 12 12 11 11 11 10 10
9 10 11 11 11 10 9 7 8 7 7 7 7 8 8 7 7 6 5 5 6 5 6 5 5 5 5 5 5 5 5 6 6 5 4 11 13 13 13 12 12 12 11
11 11 11 12 12 11 10 9 8 8 7 7 8 9 10 8 7 7 7 7 7 6 6 6 7 6 5 5 6 6 6 6 6 6 5 7 12 13 14 14 13 13 12
11 11 11 12 12 12 12 11 9 8 8 8 8 10 11 9 9 8 7 8 7 7 7 5 6 5 5 5 6 7 6 6 6 7 7 5 6 11 14 15 14 14 14
9 10 11 10 12 13 12 11 8 9 9 9 8 9 12 11 10 8 8 8 8 7 6 6 6 5 6 5 5 5 5 5 7 7 6 6 5 5 9 15 15 15 15
8 9 10 10 11 13 12 10 9 9 10 9 8 9 11 12 12 10 8 7 8 7 7 8 6 6 6 6 6 5 5 5 6 7 7 8 7 7 6 10 15 15 16
7 8 9 9 9 10 8 7 6 7 8 8 9 10 11 11 12 10 8 8 9 7 8 7 7 6 5 5 5 5 5 5 5 6 8 7 7 8 8 8 7 9 15
5 6 8 9 9 8 7 8 8 9 8 8 9 11 12 12 12 11 9 8 9 9 9 9 7 7 6 4 3 3 3 5 7 6 6 6 8 8 8 9 7 6 6
5 6 7 8 9 9 9 9 8 8 7 7 7 9 12 12 13 11 11 9 9 8 9 9 7 6 5 6 5 3 3 4 6 8 7 7 8 7 8 10 8 8 7
4 6 6 7 8 9 9 6 4 3 3 4 7 8 11 13 13 12 13 10 10 9 9 11 10 9 7 6 6 6 5 7 3 4 7 8 8 7 8 7 9 9 9
4 4 5 6 7 7 7 7 9 8 9 10 9 9 9 12 12 13 12 12 11 9 9 10 10 8 7 6 5 6 5 4 4 3 3 5 7 8 8 8 8 9 9
4 3 4 4 5 6 7 8 10 10 9 7 6 8 9 10 11 12 12 11 11 10 10 10 10 10 8 8 6 4 5 4 3 3 4 3 4 6 7 8 7 7 8
3 3 3 3 5 5 6 7 9 11 10 7 8 9 8 7 9 11 12 12 12 10 11 11 11 11 10 9 8 6 5 5 6 5 6 5 5 5 5 6 7 7 7
Wind_Direction
180 176 174 167 164 161 158 155 151 148 145 142 139 137 134 132 129 127 127 127 126 123 121 120 117 115 113 113 112 109 107 102 99 97 98 99 99 98 95 90 84 77 83
159 169 171 168 166 164 161 158 154 151 149 146 144 143 141 138 137 135 134 133 131 129 127 125 122 120 118 118 116 113 110 105 100 97 95 96 100 99 97 95 93 89 86
153 166 168 168 167 166 163 158 156 155 154 152 149 148 147 146 145 143 141 139 135 133 133 131 128 126 125 125 123 120 115 111 105 99 92 77 98 103 99 97 95 90 89
157 164 167 170 169 168 165 162 160 159 158 157 155 153 152 151 151 149 148 146 141 139 136 135 133 132 132 131 128 124 121 114 108 103 86 77 94 108 103 100 98 97 95
158 164 169 171 171 171 170 168 166 164 163 162 161 161 160 158 157 155 152 151 148 145 142 140 138 139 139 137 132 127 125 116 109 100 89 82 86 114 109 105 101 100 100
160 164 170 173 174 174 174 172 170 168 167 167 168 168 168 165 162 159 156 154 152 150 147 147 147 146 145 143 137 134 129 119 105 98 100 100 103 120 119 116 111 108 106
161 167 172 175 177 177 177 175 173 172 171 171 172 172 172 170 167 164 160 158 159 158 156 155 155 153 152 148 144 141 135 125 114 115 121 118 130 129 128 126 122 119 112
163 167 174 179 179 179 180 178 177 177 176 176 176 176 177 175 173 171 169 166 166 165 164 163 162 162 159 154 149 145 141 129 119 128 136 150 151 141 139 136 132 128 123
161 165 174 179 180 182 182 181 181 181 181 182 182 181 180 180 179 178 177 174 173 171 170 170 171 171 169 165 161 156 149 136 129 145 160 170 161 156 152 150 147 140 133
159 167 173 176 178 181 183 184 184 184 185 185 184 182 180 181 182 182 181 182 179 178 177 177 178 180 179 177 173 166 155 138 140 158 174 181 172 171 166 162 160 155 151
171 175 176 177 176 178 182 187 184 186 187 187 186 184 180 180 179 181 184 187 186 184 184 184 185 187 186 188 185 177 164 153 160 176 191 192 183 181 176 173 173 173 172
185 187 183 183 181 177 185 184 185 188 187 186 182 182 177 174 179 180 186 189 191 189 190 191 191 191 186 180 193 187 167 173 182 194 207 200 194 193 191 188 188 190 188
189 187 188 188 186 184 186 181 183 185 184 186 183 180 175 174 179 181 182 187 191 189 187 191 188 184 179 181 189 189 190 189 197 205 212 208 204 204 203 199 199 202 202
191 195 192 190 189 190 188 188 185 186 187 190 192 185 180 182 186 186 188 186 186 182 178 180 181 187 192 200 202 204 204 199 203 206 217 214 210 210 209 208 208 210 212
200 202 197 192 193 192 191 193 191 192 193 193 191 193 189 188 191 192 193 190 190 184 182 182 186 194 203 212 214 211 213 208 208 207 213 215 214 215 215 216 216 217 217
208 207 200 196 197 193 194 197 195 194 194 192 196 196 193 194 193 192 197 194 195 192 190 188 191 196 205 209 217 215 215 214 211 210 210 215 216 217 221 222 222 223 224
214 208 204 202 199 197 198 199 198 195 194 197 199 198 198 196 195 196 197 200 199 193 189 189 195 195 206 212 220 219 216 217 211 211 211 210 215 220 223 227 227 227 227
215 209 207 207 202 202 202 201 200 198 197 200 200 199 200 199 196 195 202 205 196 190 189 192 194 196 208 210 215 222 220 216 215 213 211 211 210 217 224 227 230 230 231
217 212 208 207 203 204 205 203 202 200 201 201 200 201 203 201 198 198 204 207 193 191 194 199 198 194 203 211 215 221 221 217 217 215 215 215 213 213 216 225 227 230 232
222 215 209 208 206 204 203 203 202 206 208 205 203 204 201 202 201 201 204 205 197 195 198 200 199 199 203 203 214 225 226 225 219 219 220 219 217 217 215 218 222 229 231
229 218 213 209 207 198 196 197 201 208 209 210 209 205 202 202 201 202 204 204 202 203 204 199 195 200 208 183 180 241 262 241 233 229 222 220 222 220 216 217 217 218 228
235 223 218 214 208 202 202 203 205 206 208 211 210 208 204 203 202 204 204 205 205 206 203 200 197 197 204 185 173 174 250 270 245 231 222 223 225 220 221 220 217 217 216
252 237 225 221 216 210 207 198 194 194 200 206 212 211 209 207 205 205 206 204 205 205 209 207 201 199 207 202 190 181 195 227 247 247 225 224 222 220 223 220 219 218 215
258 255 242 227 221 216 206 197 192 200 209 212 212 212 211 208 208 208 207 205 205 207 209 210 208 206 197 205 212 217 213 186 195 248 256 231 225 225 224 222 220 218 215
269 261 255 245 230 221 214 209 205 213 219 218 214 212 212 211 210 209 208 206 207 210 211 209 208 207 206 206 204 207 222 228 217 210 249 244 236 231 225 222 219 218 215
300 296 282 261 244 228 218 216 211 218 222 219 216 215 213 214 212 211 210 210 210 211 213 213 211 210 213 213 212 207 200 205 208 207 229 237 238 239 227 221 219 218 215